Regional Weather Roundup
Issued by NWS

Home | Current Version | Previous Version | Text Only | Print | Product List | Glossary On
Versions: 1 2 3 4 5 6 7 8 9 10 11 12 13 14 15 16 17 18 19 20 21 22 23 24 25 26 27 28 29 30 31 32 33 34 35 36 37 38 39 40 41 42 43 44 45 46 47 48 49 50
979
ASCA44 KEWX 201620
RWRMX

LATIN AMERICA AND CARIBBEAN REGIONAL WEATHER ROUNDUP
NATIONAL WEATHER SERVICE AUSTIN/SAN ANTONIO TX
1100 AM CDT TUE AUG 20 2019

NOTE: "FAIR" INDICATED FEW OR NO CLOUDS BELOW 12,000 FEET WITH NO
SIGNIFICANT WEATHER AND/OR OBSTRUCTIONS TO VISIBILITY.

BAJA CALIFORNIA

CITY           SKY/WX    TMP DP  RH WIND       PRES   REMARKS
LORETO         MOSUNNY   99  68  36 CALM      29.75S HX 104
LA PAZ         MOSUNNY   88  61  40 S6        29.80
MEXICALI       SUNNY     93  63  36 NW13      29.81  HX  94
S.J. DEL CABO  MOSUNNY   95  59  30 CALM      29.82R HX  94
TIJUANA        FOG       63  61  94 CALM      29.99R VSB 1

NORTHWESTERN MEXICO

CITY           SKY/WX    TMP DP  RH WIND       PRES   REMARKS
CULIACAN       MOSUNNY   93  79  62 CALM      29.79  HX 110
DURANGO        SUNNY     68  54  60 SE6       30.30
GUAYMAS        MOSUNNY   97  79  56 CALM      29.72  HX 115
HERMOSILLO     SUNNY     99  63  30 CALM      29.82  HX 100
CD. JUAREZ     PTSUNNY   82  55  39 E6        30.14
LOS MOCHIS     SUNNY     91  70  49 E8        29.80R HX  97
OBREGON        MOSUNNY   91  75  59 E10       29.77  HX 102

NORTHEASTERN MEXICO

CITY           SKY/WX    TMP DP  RH WIND       PRES   REMARKS
CHIHUAHUA      MOSUNNY   79  64  61 N3        30.19
MATAMOROS      PTSUNNY   91  75  59 SE12      30.00  HX 102
MONCLOVA       SUNNY     84  54  34 N7        30.00
MONTERREY      MOSUNNY   86  68  54 E9        30.00S
NUEVO LAREDO   MOSUNNY   90  72  55 SE18      29.99  HX  96
PIEDRAS NEGRAS MOSUNNY   91  73  55 SE10      30.03  HX 100
REYNOSA          N/A    N/A N/A N/A MISG        N/A
SALTILLO       SUNNY     81  50  34 CALM      30.19S
TORREON        SUNNY     90  59  35 NE5       30.10R
CD. VICTORIA     N/A    N/A N/A N/A MISG        N/A

WESTERN MEXICO

CITY           SKY/WX    TMP DP  RH WIND       PRES   REMARKS
AGUASCALIENTES MOSUNNY   72  46  40 NE18      30.31
COLIMA         PTSUNNY   77  73  88 CALM      29.97F
DEL BAJIO      PTSUNNY   72  48  43 E8        30.32R
GUADALAJARA    MOSUNNY   72  57  60 E8        30.20
MANZANILLO     CLOUDY    79  72  78 SE17      29.86R
MAZATLAN       PTSUNNY   88  81  79 CALM      29.81S HX 105
P. VALLARTA    PTSUNNY   86  79  79 SW12      29.80R HX  99
URUAPAN        CLOUDY    72  61  68 CALM      30.17F
ZACATECAS      MOSUNNY   68  52  56 SE12      30.32S

CENTRAL MEXICO

CITY           SKY/WX    TMP DP  RH WIND       PRES   REMARKS
CUERNAVACA     MOSUNNY   73  55  53 W6        30.13F
MEXICO CITY    MOSUNNY   64  43  45 N6        30.36F
MORELIA        MOSUNNY   72  50  46 NE9       30.25
POZA RICA      PTSUNNY   82  75  78 W5        30.00S
PUEBLA         PTSUNNY   66  45  45 N13       30.36R
QUERETARO      PTSUNNY   68  52  56 E10       30.34F
S. LUIS POTOSI MOSUNNY   68  46  45 E7        30.31S
TAMPICO        PTSUNNY   86  75  70 W2        29.98F HX  95
TOLUCA         MOSUNNY   63  43  48 SE3       30.38S

SOUTHERN MEXICO

CITY           SKY/WX    TMP DP  RH WIND       PRES   REMARKS
ACAPULCO       CLOUDY    86  75  70 E10       29.85S HX  95
B. DE HUATULCO   N/A    N/A N/A N/A MISG        N/A
OAXACA         CLOUDY    64  55  72 N6        30.23S
P. ESCONDIDO   CLOUDY    82  73  74 CALM      29.88S
VERACRUZ       PTSUNNY   81  79  94 NW6       29.96S
ZIHUATANEJO    CLOUDY    82  75  78 CALM      29.86S

YUCATAN PENINSULA

CITY           SKY/WX    TMP DP  RH WIND       PRES   REMARKS
CAMPECHE       MOSUNNY   86  75  70 E12       29.97S HX  95
CANCUN         PTSUNNY   82  81  94 NE5       30.01S HX  95
CHETUMAL       MOSUNNY   86  75  70 SE12      29.96  HX  95
CD. DEL CARMEN MOSUNNY   84  75  74 SE13      29.95  HX  92
COZUMEL        PTSUNNY   88  72  58 E12       29.98S HX  94
MERIDA         PTSUNNY   88  75  66 SE7       29.98S HX  97
MINATITLAN     MOSUNNY   84  77  79 S12       29.90S HX  94
TAPACHULA      MOSUNNY   86  75  70 CALM      29.89F HX  95
TUX. GUTIERREZ MOSUNNY   81  70  69 S2        29.99F
VILLAHERMOSA   SUNNY     84  72  65 CALM      29.96S

CENTRAL AMERICA

CITY           SKY/WX    TMP DP  RH WIND       PRES   REMARKS
BELIZE CITY    PTSUNNY   84  79  84 E9        29.93F HX  96
MANAGUA        MOSUNNY   86  73  66 E7        29.89S HX  93

CARIBBEAN

CITY           SKY/WX    TMP DP  RH WIND       PRES   REMARKS
ARUBA          PTSUNNY   90  77  66 SE20      29.97S HX 102
CURACAO        MOSUNNY   88  75  66 E18       29.97  HX  97
KINGSTON       MOSUNNY   90  73  58 SE26      29.97  HX  98
NASSAU         PTSUNNY   79  73  83 S13       30.14F
SAN JUAN       MOSUNNY   88  79  74 S17       30.06F HX 102
SANTO DOMINGO  MOSUNNY   90  77  66 SE7       30.03S HX 102
ST. CROIX      MOSUNNY   90  75  62 E16       30.07  HX 100
ST. KITTS      MOSUNNY   86  77  74 NE12      30.06S HX  97
ST. MAARTEN    MOSUNNY   91  73  55 NE12      30.06F HX 100
ST. THOMAS     MOSUNNY   88  77  70 SE14      30.06  HX 100

$$





USA.gov is the U.S. government's official web portal to all federal, state and local government web resources and services.